Voltar ao catálogo

PEGASUS R/B

AtivoPO
NORAD 23815·ROCKET BODY·🇺🇸 United States

Lançado Mar 9, 1996 de Vandenberg Space Force Base

Loading…

Próximas Passagens (próximas 24 horas)

TLE

AtualizadoSource: Space-Track

Época: Sep 14, 2026, 03:50 UTC

1 23815U 96014B   26257.16000028  .00000130  00000-0  49833-4 0  9993
2 23815  89.9977 338.7663 0020947 197.5345 162.5128 14.25737159586336

Acompanhe PEGASUS R/B em tempo real com AllMySat

Download on the App Store